Weather History for Pompano Beach, FL

Change the Weather History Date:

Thursday, June 27, 2013

  Actual Average Record
Temperature  
Mean Temperature 84 °F -  
Max Temperature 87 °F 90 °F 96 °F (1970)
Min Temperature 82 °F 73 °F 65 °F (1985)
Cooling Degree Days 19    
Growing Degree Days 34 (Base 50)    
Moisture  
Dew Point 75 °F    
Average Humidity 77    
Maximum Humidity 85    
Minimum Humidity 69    
Precipitation  
Precipitation 0.00 in - - ()
Sea Level Pressure  
Sea Level Pressure 30.02 in    
Wind  
Wind Speed 7 mph (SE)    
Max Wind Speed 10 mph    
Max Gust Speed -    
Visibility 10 miles    
Events Rain    
Averages and records for this station are not official NWS values.
T = Trace of Precipitation, MM = Missing Value Source: NWS Daily Summary

Daily Weather History Graph

Daily Weather History Graph

Search for Another Location

Airport:

Trip Planner

Search our weather history database for the weather conditions in past years. The results will help you decide how hot, cold, wet, or windy it might be!

Date:

Astronomy

Jun. 27, 2013 Rise Set
Actual Time 6:30 AM EDT 8:16 PM EDT
Civil Twilight 6:04 AM EDT 8:42 PM EDT
Nautical Twilight 5:32 AM EDT 9:14 PM EDT
Astronomical Twilight 4:59 AM EDT 9:47 PM EDT
Moon 11:45 PM EDT (6/27) 11:01 AM EDT (6/27)
Length of Visible Light 14h 38m
Length of Day
13h 46m
Waning Gibbous, 76% of the Moon is Illuminated
Jun 27
Waning Gibbous
Jun 30
Last Quarter
Jul 8
New
Jul 15
First Quarter
Jul 22
Full

Hourly Weather History & Observations

Time (EDT) Temp. Heat Index Dew Point Humidity Pressure Visibility Wind Dir Wind Speed Gust Speed Precip Events Conditions
12:53 AM 82.0 °F 89.4 °F 75.9 °F 82% 30.04 in 10.0 mi SE 8.1 mph - N/A   Scattered Clouds
1:53 AM 82.0 °F 89.4 °F 75.9 °F 82% 30.02 in 10.0 mi SE 6.9 mph - N/A   Scattered Clouds
2:53 AM 82.0 °F 89.4 °F 75.9 °F 82% 30.02 in 10.0 mi SE 6.9 mph - N/A   Partly Cloudy
3:53 AM 82.0 °F 89.4 °F 75.9 °F 82% 30.01 in 10.0 mi SSE 5.8 mph - N/A   Mostly Cloudy
4:53 AM 82.0 °F 89.4 °F 75.9 °F 82% 30.00 in 10.0 mi SE 6.9 mph - N/A   Clear
5:53 AM 82.0 °F 88.6 °F 75.0 °F 79% 30.02 in 10.0 mi SSE 4.6 mph - N/A   Partly Cloudy
6:53 AM 82.0 °F 88.6 °F 75.0 °F 79% 30.03 in 10.0 mi Calm Calm - N/A   Clear
7:53 AM 82.9 °F 90.8 °F 75.9 °F 79% 30.04 in 10.0 mi SSE 6.9 mph - N/A   Clear
8:53 AM 84.0 °F 91.9 °F 75.0 °F 74% 30.06 in 10.0 mi South 5.8 mph - N/A   Partly Cloudy
9:53 AM 86.0 °F 95.1 °F 75.0 °F 70% 30.05 in 10.0 mi ESE 9.2 mph - N/A   Clear
10:53 AM 84.9 °F 93.3 °F 75.0 °F 72% 30.06 in 10.0 mi ESE 6.9 mph - N/A   Partly Cloudy
11:53 AM 84.9 °F 92.1 °F 73.9 °F 69% 30.06 in 10.0 mi SE 8.1 mph - N/A   Scattered Clouds
12:53 PM 82.0 °F 86.7 °F 72.0 °F 71% 30.06 in 10.0 mi NNE 3.5 mph - 0.00 in Rain Light Rain
1:53 PM 86.0 °F 95.1 °F 75.0 °F 70% 30.03 in 10.0 mi East 8.1 mph - 0.00 in   Partly Cloudy
2:53 PM 86.0 °F 95.1 °F 75.0 °F 70% 30.02 in 10.0 mi SE 10.4 mph - N/A   Partly Cloudy
3:53 PM 84.0 °F 92.6 °F 75.9 °F 76% 30.01 in 10.0 mi SE 10.4 mph - N/A   Mostly Cloudy
4:53 PM 86.0 °F 96.0 °F 75.9 °F 72% 29.99 in 10.0 mi SE 10.4 mph - N/A   Clear
5:53 PM 84.0 °F 91.2 °F 73.9 °F 72% 30.00 in 10.0 mi East 5.8 mph - N/A   Clear
6:53 PM 84.0 °F 91.2 °F 73.9 °F 72% 29.99 in 10.0 mi ESE 8.1 mph - N/A   Clear
7:53 PM 82.9 °F 90.2 °F 75.0 °F 77% 29.98 in 10.0 mi SSE 6.9 mph - N/A   Clear
8:53 PM 82.0 °F 90.2 °F 77.0 °F 85% 29.99 in 10.0 mi SSE 5.8 mph - N/A   Clear
9:53 PM 82.0 °F 90.2 °F 77.0 °F 85% 30.00 in 10.0 mi SSE 3.5 mph - N/A   Clear
10:53 PM 82.0 °F 90.2 °F 77.0 °F 85% 30.01 in 10.0 mi South 3.5 mph - N/A   Clear
11:53 PM 82.0 °F 89.4 °F 75.9 °F 82% 30.01 in 10.0 mi South 3.5 mph - N/A   Scattered Clouds